Lanzarote, Spain

1:27 PM WEST on August 18, 2017 (GMT +0100)
Lanzarote

Weather History for GCRR - June, 2017

Change the Weather History Date:

Monday, June 19, 2017

  Actual Average Record
Temperature  
Mean Temperature 75 °F -  
Max Temperature 86 °F 78 °F 93 °F (2011)
Min Temperature 64 °F 66 °F 64 °F (2013)
Cooling Degree Days 10    
Growing Degree Days 25 (Base 50)    
Moisture  
Dew Point 63 °F    
Average Humidity 68    
Maximum Humidity 83    
Minimum Humidity 27    
Precipitation  
Precipitation 0.00 in 0.00 in - ()
Sea Level Pressure  
Sea Level Pressure 29.96 in    
Wind  
Wind Speed 5 mph ()    
Max Wind Speed 15 mph    
Max Gust Speed 30 mph    
Visibility 7.7 miles    
Events      
Averages and records for this station are not official NWS values.
T = Trace of Precipitation, MM = Missing Value Source: Averaged Metar Reports

Daily Weather History Graph

Daily Weather History Graph

Search for Another Location

Airport or City:

Trip Planner

Search our weather history database for the weather conditions in past years. The results will help you decide how hot, cold, wet, or windy it might be!

Date:

Astronomy

Jun. 19, 2017 Rise Set
Actual Time 6:56 AM WEST 8:55 PM WEST
Civil Twilight 6:28 AM WEST 9:22 PM WEST
Nautical Twilight 5:56 AM WEST 9:55 PM WEST
Astronomical Twilight 5:21 AM WEST 10:30 PM WEST
Moon 3:11 AM WEST (6/19) 3:56 PM WEST (6/19)
Length of Visible Light 14h 53m
Length of Day
13h 59m
Waning Crescent, 29% of the Moon is Illuminated
Jun 19
Waning Crescent
Jun 24
New
Jul 1
First Quarter
Jul 9
Full
Jul 16
Last Quarter

Hourly Weather History & Observations

Time (WEST) Temp. Heat Index Dew Point Humidity Pressure Visibility Wind Dir Wind Speed Gust Speed Precip Events Conditions
12:00 AM 71 °F - 62 °F 67% 29.96 in - NW 4.6 mph - -  
12:00 AM 71.6 °F - 62.6 °F 73% 29.95 in 6.2 mi Variable 2.3 mph - N/A   Partly Cloudy
12:30 AM 71.6 °F - 60.8 °F 69% 29.95 in 6.2 mi West 3.5 mph - N/A   Partly Cloudy
1:00 AM 70 °F - 62 °F 69% 29.96 in 12 mi NE 4.6 mph - -   Scattered Clouds
1:00 AM 71.6 °F - 60.8 °F 69% 29.95 in 6.2 mi Variable 1.2 mph - N/A   Partly Cloudy
2:00 AM 67 °F - 61 °F 75% 29.96 in - NNE 5.8 mph - -  
3:00 AM 66 °F - 60 °F 76% 29.94 in - Calm Calm - -  
4:00 AM 65 °F - 59 °F 74% 29.94 in - Calm Calm - -  
5:00 AM 66 °F - 58 °F 70% 29.93 in - NW 2.3 mph - -  
6:00 AM 67 °F - 60 °F 73% 29.93 in - WNW 4.6 mph - -  
6:00 AM 66.2 °F - 59.0 °F 78% 29.92 in 6.2 mi WNW 5.8 mph - N/A   Partly Cloudy
7:00 AM 67 °F - 61 °F 75% 29.94 in 19 mi WNW 2.3 mph - -   Scattered Clouds
7:00 AM 66.2 °F - 60.8 °F 83% 29.92 in 6.2 mi WNW 5.8 mph - N/A   Partly Cloudy
7:30 AM 68.0 °F - 60.8 °F 78% 29.95 in 6.2 mi Calm Calm - N/A   Partly Cloudy
8:00 AM 69 °F - 61 °F 69% 29.96 in - Calm Calm - -  
8:00 AM 69.8 °F - 62.6 °F 78% 29.95 in 6.2 mi Variable 1.2 mph - N/A   Partly Cloudy
8:30 AM 71.6 °F - 62.6 °F 73% 29.95 in 6.2 mi Variable 1.2 mph - N/A   Partly Cloudy
9:00 AM 72 °F - 62 °F 62% 29.97 in - SW 2.3 mph - -  
9:00 AM 71.6 °F - 62.6 °F 73% 29.95 in 6.2 mi Variable 2.3 mph - N/A   Partly Cloudy
9:30 AM 73.4 °F - 62.6 °F 69% 29.95 in 6.2 mi Variable 2.3 mph - N/A   Partly Cloudy
10:00 AM 74 °F - 64 °F 62% 29.97 in 19 mi South 6.9 mph - -   Scattered Clouds
10:00 AM 73.4 °F - 64.4 °F 73% 29.95 in 6.2 mi South 5.8 mph - N/A   Partly Cloudy
10:30 AM 73.4 °F - 64.4 °F 73% 29.95 in 6.2 mi SSW 9.2 mph - N/A   Partly Cloudy
11:00 AM 76 °F - 64 °F 58% 29.96 in - SSW 11.5 mph - -  
11:00 AM 75.2 °F - 64.4 °F 69% 29.95 in 6.2 mi SSW 9.2 mph - N/A   Partly Cloudy
11:30 AM 75.2 °F - 64.4 °F 69% 29.95 in 6.2 mi SW 15.0 mph 29.9 mph N/A   Partly Cloudy
12:00 PM 82 °F - 64 °F 46% 29.95 in - West 6.9 mph - -  
12:30 PM 80.6 °F 81.1 °F 59.0 °F 48% 29.95 in 6.2 mi SSW 9.2 mph 20.7 mph N/A   Partly Cloudy
1:00 PM 85 °F - 56 °F 27% 29.96 in 22 mi NW 4.6 mph - -   Clear
1:00 PM 84.2 °F 83.5 °F 57.2 °F 40% 29.95 in - Variable 3.5 mph 17.3 mph N/A   Clear
1:30 PM 82.4 °F 82.9 °F 60.8 °F 48% 29.95 in - SSE 6.9 mph - N/A   Clear
2:00 PM 85 °F - 58 °F 29% 29.96 in - North 10.4 mph - -  
2:30 PM 80.6 °F 83.2 °F 68.0 °F 65% 29.95 in 6.2 mi East 10.4 mph - N/A   Partly Cloudy
3:00 PM 78 °F - 66 °F 58% 29.96 in - East 13.8 mph - -  
3:00 PM 77.0 °F - 68.0 °F 74% 29.95 in 6.2 mi East 13.8 mph - N/A   Partly Cloudy
4:00 PM 78 °F - 65 °F 56% 29.96 in 22 mi ESE 13.8 mph - -   Scattered Clouds
4:00 PM 75.2 °F - 66.2 °F 73% 29.95 in 6.2 mi East 15.0 mph - N/A   Partly Cloudy
4:30 PM 75.2 °F - 66.2 °F 73% 29.95 in 6.2 mi East 13.8 mph - N/A   Partly Cloudy
5:00 PM 78 °F - 64 °F 53% 29.96 in - ESE 11.5 mph - -  
5:00 PM 75.2 °F - 66.2 °F 73% 29.95 in 6.2 mi ESE 12.7 mph - N/A   Partly Cloudy
5:30 PM 77.0 °F - 66.2 °F 69% 29.95 in 6.2 mi East 11.5 mph - N/A   Partly Cloudy
6:00 PM 77 °F - 65 °F 57% 29.96 in - ESE 10.4 mph - -  
6:00 PM 75.2 °F - 66.2 °F 73% 29.95 in 6.2 mi ESE 10.4 mph - N/A   Partly Cloudy
6:30 PM 75.2 °F - 66.2 °F 73% 29.95 in 6.2 mi SE 10.4 mph - N/A   Partly Cloudy
7:00 PM 76 °F - 64 °F 59% 29.96 in 19 mi SE 8.1 mph - -   Scattered Clouds
7:00 PM 75.2 °F - 66.2 °F 73% 29.95 in 6.2 mi SE 8.1 mph - N/A   Partly Cloudy
7:30 PM 75.2 °F - 66.2 °F 73% 29.95 in 6.2 mi SE 6.9 mph - N/A   Partly Cloudy
8:00 PM 75 °F - 64 °F 61% 29.97 in - SSE 6.9 mph - -  
8:00 PM 75.2 °F - 66.2 °F 73% 29.98 in 6.2 mi SE 6.9 mph - N/A   Partly Cloudy
8:30 PM 73.4 °F - 66.2 °F 78% 29.98 in 6.2 mi SSE 5.8 mph - N/A   Partly Cloudy
9:00 PM 73 °F - 64 °F 66% 29.99 in - SSE 3.5 mph - -  
9:00 PM 73.4 °F - 66.2 °F 78% 29.98 in 6.2 mi SSE 4.6 mph - N/A   Partly Cloudy
9:30 PM 73.4 °F - 64.4 °F 73% 29.98 in 6.2 mi SSE 3.5 mph - N/A   Scattered Clouds
10:00 PM 72 °F - 64 °F 70% 30.00 in 19 mi South 2.3 mph - -   Partly Cloudy
10:00 PM 73.4 °F - 66.2 °F 78% 30.01 in 6.2 mi SSE 4.6 mph - N/A   Scattered Clouds
10:30 PM 73.4 °F - 64.4 °F 73% 30.01 in 6.2 mi Variable 1.2 mph - N/A   Scattered Clouds
11:00 PM 71 °F - 64 °F 73% 30.02 in - South 2.3 mph - -  
11:00 PM 71.6 °F - 66.2 °F 83% 30.01 in 6.2 mi Variable 1.2 mph - N/A   Partly Cloudy
11:30 PM 71.6 °F - 66.2 °F 83% 30.01 in 6.2 mi Variable 1.2 mph - N/A   Partly Cloudy